| time (UTC) | temp F | wind direction | speed MPH | gust MPH | rain 1hr in | rain 24hr in | rain mn in | humidity % | barometer mb |
| 20260906041525 | 52 | 153 | 6.0 | 13.0 | 0.04 | 0.04 | 0.04 | 92 | 1016.8 |
| 20260906040020 | 52 | 156 | 6.0 | 14.0 | 0.04 | 0.04 | 0.04 | 92 | 1017.2 |
| 20260906034545 | 53 | 177 | 3.0 | 12.0 | 0.04 | 0.04 | 0.04 | 91 | 1017.6 |
| 20260906033045 | 53 | 180 | 6.0 | 14.0 | 0.03 | 0.03 | 0.03 | 89 | 1017.8 |
| 20260906031537 | 54 | 146 | 7.0 | 14.0 | 0.00 | 0.00 | 0.00 | 86 | 1018.0 |
| 20260906030006 | 54 | 147 | 7.0 | 15.0 | 0.00 | 0.00 | 0.00 | 85 | 1018.3 |
| 20260906024508 | 54 | 198 | 7.0 | 17.0 | 0.00 | 0.00 | 0.00 | 85 | 1018.6 |
| 20260906023125 | 54 | 165 | 7.0 | 14.0 | 0.00 | 0.00 | 0.00 | 85 | 1018.8 |
| 20260906021601 | 54 | 180 | 5.0 | 14.0 | 0.00 | 0.00 | 0.00 | 86 | 1019.1 |
| 20260906020139 | 54 | 172 | 5.0 | 15.0 | 0.00 | 0.00 | 0.00 | 85 | 1019.4 |
| 20260906014535 | 54 | 161 | 5.0 | 15.0 | 0.00 | 0.00 | 0.00 | 84 | 1019.7 |
| 20260906013004 | 54 | 165 | 6.0 | 14.0 | 0.00 | 0.00 | 0.00 | 84 | 1020.0 |
| 20260906011603 | 54 | 167 | 5.0 | 16.0 | 0.00 | 0.00 | 0.00 | 84 | 1020.1 |
| 20260906010132 | 54 | 186 | 5.0 | 14.0 | 0.00 | 0.00 | 0.00 | 85 | 1020.1 |
| 20260906004511 | 54 | 182 | 6.0 | 12.0 | 0.00 | 0.00 | 0.00 | 85 | 1020.2 |
| 20260906003139 | 54 | 150 | 5.0 | 11.0 | 0.00 | 0.00 | 0.00 | 85 | 1020.6 |
| 20260906001510 | 54 | 171 | 5.0 | 12.0 | 0.00 | 0.00 | 0.00 | 84 | 1020.8 |
| 20260906000136 | 54 | 194 | 3.0 | 12.0 | 0.00 | 0.00 | 0.00 | 84 | 1020.9 |
| 20260905234605 | 54 | 203 | 4.0 | 10.0 | 0.00 | 0.00 | 0.00 | 84 | 1021.2 |
| 20260905233116 | 54 | 160 | 3.0 | 10.0 | 0.00 | 0.00 | 0.00 | 84 | 1021.4 |
| 20260905231506 | 54 | 194 | 3.0 | 10.0 | 0.00 | 0.00 | 0.00 | 83 | 1021.5 |
| 20260905230002 | 55 | 171 | 3.0 | 11.0 | 0.00 | 0.00 | 0.00 | 83 | 1021.5 |
| 20260905224603 | 55 | 190 | 4.0 | 11.0 | 0.00 | 0.00 | 0.00 | 83 | 1021.6 |
| 20260905223112 | 55 | 194 | 2.0 | 8.0 | 0.00 | 0.00 | 0.00 | 83 | 1021.7 |
| 20260905221557 | 55 | 192 | 1.0 | 6.0 | 0.00 | 0.00 | 0.00 | 82 | 1021.8 |
| 20260905220050 | 55 | 155 | 3.0 | 10.0 | 0.00 | 0.00 | 0.00 | 81 | 1022.0 |
| 20260905214557 | 55 | 211 | 4.0 | 12.0 | 0.00 | 0.00 | 0.00 | 81 | 1021.7 |
| 20260905213116 | 55 | 162 | 3.0 | 9.0 | 0.00 | 0.00 | 0.00 | 81 | 1021.9 |
| 20260905211600 | 55 | 142 | 3.0 | 7.0 | 0.00 | 0.00 | 0.00 | 81 | 1021.8 |
| 20260905210120 | 55 | 207 | 2.0 | 7.0 | 0.00 | 0.00 | 0.00 | 80 | 1021.8 |
| 20260905204553 | 55 | 164 | 3.0 | 6.0 | 0.00 | 0.00 | 0.00 | 79 | 1021.8 |
| 20260905203103 | 55 | 240 | 4.0 | 8.0 | 0.00 | 0.00 | 0.00 | 80 | 1021.9 |
| 20260905201556 | 55 | 246 | 2.0 | 8.0 | 0.00 | 0.00 | 0.00 | 81 | 1021.9 |
| 20260905200055 | 55 | 239 | 5.0 | 10.0 | 0.00 | 0.00 | 0.00 | 81 | 1022.0 |
| 20260905194544 | 55 | 246 | 5.0 | 13.0 | 0.00 | 0.00 | 0.00 | 82 | 1021.8 |
| 20260905193115 | 56 | 242 | 4.0 | 10.0 | 0.00 | 0.00 | 0.00 | 82 | 1021.7 |
| 20260905191559 | 56 | 246 | 5.0 | 10.0 | 0.00 | 0.00 | 0.00 | 82 | 1021.8 |
| 20260905190002 | 56 | 212 | 2.0 | 10.0 | 0.00 | 0.00 | 0.00 | 81 | 1021.8 |
| 20260905184519 | 56 | 246 | 2.0 | 8.0 | 0.00 | 0.00 | 0.00 | 81 | 1021.7 |
| 20260905183153 | 57 | 244 | 4.0 | 10.0 | 0.00 | 0.00 | 0.00 | 80 | 1021.5 |
| 20260905181506 | 57 | 223 | 4.0 | 10.0 | 0.00 | 0.00 | 0.00 | 80 | 1021.4 |
| 20260905180129 | 57 | 221 | 4.0 | 10.0 | 0.00 | 0.00 | 0.00 | 79 | 1021.3 |
| 20260905174515 | 58 | 225 | 4.0 | 10.0 | 0.00 | 0.00 | 0.00 | 79 | 1021.4 |
| 20260905173148 | 58 | 241 | 3.0 | 7.0 | 0.00 | 0.00 | 0.00 | 78 | 1021.2 |
| 20260905171603 | 58 | 235 | 2.0 | 10.0 | 0.00 | 0.00 | 0.00 | 77 | 1021.0 |
| 20260905170112 | 59 | 223 | 6.0 | 12.0 | 0.00 | 0.00 | 0.00 | 78 | 1020.7 |
| 20260905164559 | 59 | 225 | 3.0 | 7.0 | 0.00 | 0.00 | 0.00 | 77 | 1020.6 |
| 20260905163059 | 59 | 240 | 3.0 | 11.0 | 0.00 | 0.00 | 0.00 | 75 | 1020.7 |
| 20260905161505 | 60 | 243 | 5.0 | 14.0 | 0.00 | 0.00 | 0.00 | 72 | 1020.4 |
| 20260905160126 | 60 | 279 | 6.0 | 16.0 | 0.00 | 0.00 | 0.00 | 72 | 1020.6 |
| 20260905154502 | 61 | 234 | 5.0 | 14.0 | 0.00 | 0.00 | 0.00 | 71 | 1020.6 |
| 20260905153015 | 63 | 295 | 8.0 | 13.0 | 0.00 | 0.00 | 0.00 | 67 | 1020.5 |
| 20260905151534 | 63 | 234 | 5.0 | 18.0 | 0.00 | 0.00 | 0.00 | 68 | 1020.3 |
| 20260905150015 | 63 | 277 | 8.0 | 17.0 | 0.00 | 0.00 | 0.00 | 67 | 1020.4 |
| 20260905144508 | 63 | 291 | 5.0 | 13.0 | 0.00 | 0.00 | 0.00 | 68 | 1020.4 |
| 20260905143101 | 63 | 263 | 6.0 | 15.0 | 0.00 | 0.00 | 0.00 | 66 | 1020.1 |
| 20260905141506 | 60 | 229 | 6.0 | 13.0 | 0.00 | 0.00 | 0.00 | 68 | 1020.4 |
| 20260905140010 | 62 | 257 | 7.0 | 14.0 | 0.00 | 0.00 | 0.00 | 67 | 1020.3 |
| 20260905134510 | 63 | 248 | 7.0 | 15.0 | 0.00 | 0.00 | 0.00 | 66 | 1020.3 |
| 20260905133118 | 63 | 232 | 4.0 | 12.0 | 0.00 | 0.00 | 0.00 | 67 | 1020.3 |
| 20260905131548 | 63 | 300 | 5.0 | 15.0 | 0.00 | 0.00 | 0.00 | 64 | 1020.0 |
| 20260905130108 | 63 | 227 | 6.0 | 12.0 | 0.00 | 0.00 | 0.00 | 64 | 1019.9 |
| 20260905124540 | 63 | 226 | 10.0 | 18.0 | 0.00 | 0.00 | 0.00 | 65 | 1019.7 |
| 20260905123045 | 62 | 227 | 5.0 | 15.0 | 0.00 | 0.00 | 0.00 | 66 | 1019.7 |
| 20260905121544 | 62 | 265 | 6.0 | 15.0 | 0.00 | 0.00 | 0.00 | 66 | 1019.6 |
| 20260905120040 | 63 | 272 | 5.0 | 17.0 | 0.00 | 0.00 | 0.00 | 63 | 1019.3 |
| 20260905114544 | 61 | 269 | 7.0 | 13.0 | 0.00 | 0.01 | 0.00 | 66 | 1019.2 |
| 20260905113042 | 61 | 243 | 6.0 | 14.0 | 0.00 | 0.01 | 0.00 | 68 | 1019.2 |
| 20260905111517 | 61 | 266 | 6.0 | 15.0 | 0.00 | 0.01 | 0.00 | 69 | 1019.1 |
| 20260905110200 | 61 | 276 | 4.0 | 16.0 | 0.00 | 0.01 | 0.00 | 72 | 1019.1 |
| 20260905104613 | 60 | 281 | 7.0 | 14.0 | 0.00 | 0.02 | 0.00 | 70 | 1018.7 |
| 20260905103137 | 59 | 303 | 6.0 | 20.0 | 0.00 | 0.02 | 0.00 | 71 | 1018.6 |
| 20260905101519 | 59 | 260 | 6.0 | 14.0 | 0.00 | 0.02 | 0.00 | 71 | 1018.2 |
| 20260905100007 | 59 | 269 | 6.0 | 15.0 | 0.00 | 0.02 | 0.00 | 69 | 1018.0 |
| 20260905094507 | 59 | 248 | 6.0 | 15.0 | 0.00 | 0.02 | 0.00 | 71 | 1017.9 |
| 20260905093123 | 58 | 227 | 6.0 | 17.0 | 0.00 | 0.02 | 0.00 | 72 | 1018.0 |
| 20260905091515 | 57 | 314 | 7.0 | 14.0 | 0.00 | 0.02 | 0.00 | 72 | 1017.8 |
| 20260905090010 | 57 | 256 | 7.0 | 14.0 | 0.00 | 0.02 | 0.00 | 74 | 1017.5 |
| 20260905084505 | 56 | 271 | 6.0 | 14.0 | 0.00 | 0.02 | 0.00 | 76 | 1017.2 |
| 20260905083117 | 56 | 259 | 6.0 | 16.0 | 0.00 | 0.02 | 0.00 | 77 | 1017.0 |
| 20260905081506 | 55 | 238 | 7.0 | 17.0 | 0.00 | 0.02 | 0.00 | 78 | 1016.7 |
| 20260905080155 | 54 | 288 | 5.0 | 15.0 | 0.00 | 0.02 | 0.00 | 78 | 1016.5 |
| 20260905074524 | 53 | 280 | 4.0 | 14.0 | 0.00 | 0.02 | 0.00 | 81 | 1016.5 |
| 20260905073135 | 53 | 278 | 5.0 | 12.0 | 0.00 | 0.02 | 0.00 | 82 | 1016.3 |
| 20260905071558 | 53 | 242 | 3.0 | 11.0 | 0.00 | 0.02 | 0.00 | 82 | 1016.1 |
| 20260905064545 | 52 | 267 | 7.0 | 14.0 | 0.00 | 0.02 | 0.00 | 83 | 1015.5 |
| 20260905063056 | 51 | 295 | 5.0 | 16.0 | 0.00 | 0.02 | 0.00 | 83 | 1015.2 |
| 20260905061549 | 51 | 250 | 5.0 | 13.0 | 0.00 | 0.02 | 0.00 | 83 | 1015.1 |
| 20260905060048 | 51 | 265 | 5.0 | 15.0 | 0.00 | 0.02 | 0.00 | 84 | 1014.9 |
| 20260905054550 | 51 | 249 | 7.0 | 17.0 | 0.00 | 0.02 | 0.00 | 84 | 1014.6 |
| 20260905053106 | 51 | 243 | 6.0 | 15.0 | 0.00 | 0.02 | 0.00 | 84 | 1014.6 |
| 20260905051555 | 51 | 238 | 6.0 | 13.0 | 0.00 | 0.02 | 0.00 | 84 | 1014.2 |
| 20260905050111 | 51 | 215 | 6.0 | 14.0 | 0.00 | 0.02 | 0.00 | 84 | 1014.1 |
| 20260905044604 | 51 | 249 | 5.0 | 15.0 | 0.00 | 0.02 | 0.00 | 84 | 1013.9 |
| 20260905043134 | 51 | 256 | 3.0 | 15.0 | 0.00 | 0.02 | 0.00 | 84 | 1013.8 |